Flag for India Weather past 2 weeks in Mumbai, Maharashtra, India

Now
75 °F

Haze.


Feels Like: 78 °F
Forecast: 76 / 86 °F
Wind: No wind

Location: Bombay / Santacruz

Current Time: Feb 1, 2015 at 5:20:15 AM

Latest Report: Feb 1, 2015 at 3:40 AM


Visibility: 2 mi

Pressure: 29.92 "Hg

Humidity: 57%

Dew point: 59 °F

Location of MumbaiLocation

Historic Weather in Mumbai — Graph

°F

Mumbai temperature yesterday

Maximum temperature yesterday: 93 °F (at 2:40 PM)
Minimum temperature yesterday: 73 °F (at 6:40 AM)
Average temperature yesterday: 82 °F

Past Weeks' High & Low Weather Summary

 TemperatureHumidityPressure
High93 °F (Jan 31, 2:40 PM)94% (Jan 20, 4:40 AM)30.09 "Hg (Jan 20, 4:40 AM)
Low68 °F (Jan 27, 5:40 AM)25% (Jan 17, 1:40 PM)29.80 "Hg (Jan 28, 2:40 PM)
Average77 °F56%29.95 "Hg
* Reported Jan 17 3:40 AM — Feb 1 3:40 AM, Mumbai, Weather by CustomWeather, © 2014

Note: Actual official high and low records may vary slightly from our data, if they occured in-between our weather recording intervals... More about our weather records

Advertising

Mumbai weather history for previous 24 hours

 ConditionsComfort  
Time TempWeatherWind HumidityBarometerVisibility
3:40 AM
Feb 1
75 °FHaze.No wind57%29.92 "Hg1 mi
2:40 AM75 °FClear.No wind61%29.92 "Hg1 mi
1:40 AM75 °FClear.No wind57%29.95 "Hg1 mi
12:40 AM79 °FClear.No wind45%29.95 "Hg1 mi
11:40 PM
Jan 31
81 °FClear.No wind42%29.98 "Hg2 mi
10:40 PM81 °FClear.No wind42%29.95 "Hg2 mi
9:40 PM81 °FClear.No wind45%29.95 "Hg2 mi
8:40 PM82 °FClear.7 mph42%29.95 "Hg2 mi
7:40 PM82 °FClear.7 mph48%29.92 "Hg2 mi
6:40 PM84 °FClear.8 mph45%29.92 "Hg2 mi
5:40 PM90 °FClear.7 mph31%29.89 "Hg2 mi
4:40 PM90 °FClear.12 mph31%29.89 "Hg2 mi
3:40 PM91 °FClear.12 mph30%29.89 "Hg2 mi
2:40 PM93 °FClear.12 mph28%29.89 "Hg2 mi
1:40 PM91 °FClear.3 mph28%29.92 "Hg2 mi
12:40 PM88 °FClear.6 mph33%29.98 "Hg2 mi
11:40 AM86 °FClear.9 mph33%30.01 "Hg2 mi
10:40 AM84 °FClear.9 mph35%30.04 "Hg2 mi
9:40 AM81 °FClear.10 mph34%30.01 "Hg2 mi
8:40 AM77 °FClear.9 mph36%30.01 "Hg1 mi
7:40 AM75 °FClear.6 mph39%29.98 "Hg1 mi
6:40 AM73 °FClear.3 mph41%29.95 "Hg1 mi
5:40 AM75 °FClear.5 mph39%29.95 "Hg1 mi
Weather by CustomWeather, © 2014

See weather overviewHow to use our weather pages